[[{"header":{"parameterUnit":"m.s-1","parameterCategory":1,"la1":30.2991,"la2":30.254,"lo1":-89.0895,"lo2":-89.0444,"dy":0.0017,"dx":0.0017,"nx":28,"ny":28,"refTime":"2025-08-24T03:00:00:Z","depth":0,"parameterNumber":2,"parameterNumberName":"U-component_of_WINDS"},"data":[0,0,0,0,0,0,0,0,0,0,0,0,0,0,0,0,0,0,0,0,0,0,0,0,0,0,0,0,0,0,0,0,0,0,0,0,0,0,0,0,0,0,0,0,0,0,0,0,0,0,0,0,0,0,0,0,0,0,2.6131,2.6133,0,2.631,2.6312,2.6314,2.6312,2.6309,2.6307,2.6305,2.6491,2.6498,2.6505,0,0,0,0,0,0,0,0,0,0,0,0,0,2.579,2.5796,2.6131,2.6133,2.6136,2.631,2.6312,2.6315,2.6312,2.6309,2.6306,2.6303,2.6489,2.6497,2.6506,0,0,0,0,0,0,0,0,0,0,0,0,0,2.5951,2.5799,2.6131,2.6155,2.6159,2.6309,2.6312,2.6315,2.6313,2.6309,2.6305,2.6302,2.6486,2.6497,2.6507,2.6646,0,0,2.654,2.6545,0,0,0,0,0,0,0,0,2.5941,2.5963,2.6149,2.6154,2.6159,2.6285,2.626,2.6426,2.6314,2.6255,2.6305,2.63,2.6426,2.6441,2.6483,2.6654,2.6662,2.6541,2.6548,2.6552,2.6555,0,0,0,0,0,0,0,2.593,2.5955,2.6202,2.6152,2.6158,2.6158,2.6177,2.6292,2.6358,2.6259,2.626,2.6281,2.6428,2.6472,2.6487,2.6665,2.6541,2.655,2.6557,2.6561,2.6957,2.6961,0,0,0,0,0,0,2.5914,2.5946,2.6196,2.6207,2.6039,2.6167,2.6188,2.6248,2.6357,2.637,2.6283,2.628,2.6456,2.6475,2.6494,2.6661,2.6552,2.6562,2.6569,2.6953,2.6958,2.6963,0,0,0,0,0,0,2.5906,2.5936,2.6189,2.6077,2.6109,2.6177,2.6244,2.6253,2.6298,2.6375,2.6387,2.6317,2.6454,2.6478,2.6607,2.6667,2.6567,2.6577,2.6949,2.6955,2.696,2.6997,0,0,0,0,0,0,2.5897,2.5933,2.5986,2.6078,2.6115,2.6299,2.6248,2.6259,2.6316,2.6313,2.641,2.6422,2.6453,2.6591,2.6618,2.668,2.6586,2.6943,2.6951,2.6958,2.6991,2.7004,2.7015,0,0,0,0,0,2.5885,2.5991,2.5989,2.6019,2.6182,2.6302,2.6324,2.6355,2.6321,2.6375,2.6424,2.6419,2.6657,2.6604,2.6634,2.6701,2.694,2.6949,2.6958,2.6986,2.7001,2.7015,0,0,0,0,0,0,2.5906,2.6003,2.6002,2.6141,2.6213,2.6302,2.637,2.6371,2.6456,2.6449,2.6487,2.6509,2.6636,2.6682,2.6622,2.684,2.6794,2.681,2.6805,2.682,2.6832,2.6818,2.6594,0,0,0,0,0,2.5926,2.6015,2.6096,2.6211,2.6247,2.6302,2.6356,2.6374,2.6451,2.6481,2.654,2.6616,2.6707,2.6767,2.6856,2.6998,2.7018,2.7059,2.7071,2.708,2.7093,2.717,2.7188,2.6992,2.6992,2.6992,0,0,2.597,2.6034,2.6088,2.6216,2.6274,2.6365,2.6328,2.6426,2.6494,2.6497,2.6621,2.6667,2.6754,2.6889,2.6952,2.6931,2.7152,2.7092,2.7099,2.7106,2.7181,2.7199,2.7216,2.6999,2.6998,2.6997,0,0,2.6096,2.6154,2.6255,2.6313,2.6401,2.6437,2.6461,2.655,2.6579,2.6704,2.6708,2.679,2.6947,2.7008,2.706,2.7207,2.7205,2.7236,2.7297,2.7372,2.7387,2.7401,2.7452,2.747,2.7248,2.7248,2.7249,0,2.6139,2.6275,2.6307,2.6405,2.646,2.6466,2.6568,2.6624,2.6737,2.6775,2.675,2.6946,2.7006,2.7154,2.719,2.7233,2.7261,2.7224,2.7382,2.7397,2.741,2.7458,2.7478,2.7251,2.7251,2.7251,2.725,0,2.6323,2.6418,2.6489,2.6595,2.666,2.6759,2.6806,2.6868,2.6881,2.6919,2.7046,2.7117,2.7219,2.7256,2.7271,2.7407,2.7391,2.7374,2.7328,2.7431,2.7477,2.7496,2.7255,2.7254,2.7254,2.7253,0,0,2.6466,2.6588,2.6613,2.6661,2.6758,2.6832,2.6932,2.703,2.7081,2.7159,2.7243,2.7376,2.736,2.7419,2.744,2.7506,2.7616,2.7481,2.7483,2.7501,2.7768,2.7778,2.7799,2.7616,2.7619,2.7622,2.776,0,2.66,2.6776,2.6807,2.696,2.7047,2.7054,2.7141,2.721,2.7249,2.7329,2.7373,2.7465,2.7439,2.7474,2.7539,2.7588,2.7669,2.7579,2.7693,2.7697,2.7669,2.7824,2.7835,2.7961,2.7778,2.7781,2.7784,0,2.6779,2.6859,2.7021,2.7104,2.7142,2.722,2.7311,2.7388,2.7467,2.7491,2.7555,2.7569,2.7673,2.7624,2.7768,2.7705,2.7755,2.7786,2.7791,2.7801,2.7745,2.7835,2.8003,2.802,2.7813,2.7811,2.7808,0,2.6864,2.7013,2.7128,2.7169,2.727,2.7324,2.7369,2.7444,2.7501,2.7582,2.7618,2.7711,2.7762,2.7833,2.7871,2.7833,2.8012,2.7966,2.8034,2.8032,2.8069,2.8066,2.8244,2.8105,2.8105,2.8104,2.8104,0,2.7008,2.7107,2.7167,2.7238,2.7348,2.7383,2.7492,2.7536,2.7602,2.7682,2.7695,2.7769,2.7816,2.7898,2.7929,2.8042,2.8065,2.8087,2.8094,2.8084,2.8081,2.8115,2.8107,2.8109,2.8108,2.8107,2.8106,0,2.7121,2.7165,2.7291,2.7376,2.74,2.7477,2.755,2.7619,2.7658,2.7758,2.7784,2.7846,2.7942,2.7988,2.8109,2.8129,2.8256,2.8259,2.8229,2.8231,2.8294,2.8287,2.8498,2.8527,2.8371,2.8373,2.8374,0,2.7209,2.7284,2.7376,2.743,2.7475,2.7562,2.7619,2.7657,2.7717,2.7811,2.7869,2.7965,2.8044,2.8198,2.8254,2.8346,2.8349,2.8417,2.8363,2.835,2.8347,2.8341,2.8347,2.8426,2.8427,2.8428,2.8429,0,2.7359,2.7377,2.7459,2.7548,2.7615,2.7688,2.7759,2.7802,2.7852,2.7918,2.8016,2.8077,2.8198,2.8294,2.8389,2.8436,2.8441,2.8446,2.8466,2.8456,2.8435,2.8444,2.8253,2.8441,2.8439,2.8439,2.8438,2.8438,2.7461,2.7527,2.7602,2.7692,2.7749,2.7815,2.7883,2.793,2.8012,2.8112,2.8131,2.8234,2.831,2.8438,2.8489,2.857,2.8555,2.8584,2.8591,2.8597,2.8599,2.8423,2.8588,2.8588,2.8588,2.8588,2.8588,0,2.7609,2.7658,2.774,2.7838,2.7909,2.7907,2.7985,2.8044,2.8135,2.8205,2.8282,2.8393,2.8486,2.8549,2.8642,2.8696,2.87,2.8719,2.8714,2.8724,2.8609,2.8581,2.8713,2.8713,2.8713,2.8713,2.8713,2.8713,2.7695,2.7806,2.7833,2.7973,2.8021,2.8121,2.8166,2.8227,2.8282,2.8406,2.8482,2.8522,2.8589,2.8687,2.8772,2.8788,2.8821,2.884,2.8855,2.8746,2.8733,2.872,2.8694,2.8847,2.8847,2.8963,2.8964,2.8965]},{"header":{"parameterUnit":"m.s-1","parameterCategory":1,"la1":30.2991,"la2":30.254,"lo1":-89.0895,"lo2":-89.0444,"dy":0.0017,"dx":0.0017,"nx":28,"ny":28,"refTime":"2025-08-24T03:00:00:Z","depth":0,"parameterNumber":3,"parameterNumberName":"V-component_of_WINDS"},"data":[0,0,0,0,0,0,0,0,0,0,0,0,0,0,0,0,0,0,0,0,0,0,0,0,0,0,0,0,0,0,0,0,0,0,0,0,0,0,0,0,0,0,0,0,0,0,0,0,0,0,0,0,0,0,0,0,0,0,3.5772,3.5773,0,3.5863,3.5864,3.5865,3.5831,3.5829,3.5826,3.5825,3.5911,3.5915,3.592,0,0,0,0,0,0,0,0,0,0,0,0,0,3.556,3.5564,3.5772,3.5773,3.5774,3.5863,3.5864,3.5866,3.5831,3.5828,3.5826,3.5824,3.591,3.5915,3.592,0,0,0,0,0,0,0,0,0,0,0,0,0,3.5651,3.5565,3.5772,3.5768,3.5769,3.5863,3.5864,3.5866,3.5832,3.5828,3.5825,3.5822,3.5908,3.5914,3.5921,3.6022,0,0,3.594,3.5943,0,0,0,0,0,0,0,0,3.5646,3.5659,3.5767,3.5768,3.5769,3.5833,3.5821,3.5918,3.5832,3.5807,3.5824,3.5821,3.5887,3.5895,3.5919,3.6026,3.603,3.5941,3.5944,3.5947,3.5949,0,0,0,0,0,0,0,3.564,3.5655,3.5808,3.5769,3.577,3.5759,3.5768,3.5839,3.5863,3.5809,3.5807,3.5819,3.5887,3.5913,3.592,3.6031,3.594,3.5946,3.595,3.5953,3.6222,3.6226,0,0,0,0,0,0,3.5634,3.565,3.5805,3.5811,3.5699,3.5765,3.5776,3.5815,3.5863,3.5867,3.5821,3.5817,3.5903,3.5913,3.5923,3.6043,3.5947,3.5953,3.5957,3.6219,3.6223,3.6227,0,0,0,0,0,0,3.563,3.5648,3.5801,3.573,3.5748,3.5772,3.5817,3.5819,3.5844,3.5872,3.5875,3.5844,3.5901,3.5914,3.5997,3.6045,3.5956,3.5962,3.6215,3.622,3.6225,3.6284,0,0,0,0,0,0,3.5624,3.5647,3.5688,3.5731,3.5752,3.5877,3.582,3.5823,3.5856,3.5851,3.5894,3.5897,3.59,3.5988,3.6004,3.6053,3.5967,3.6211,3.6217,3.6223,3.6278,3.6291,3.6301,0,0,0,0,0,3.5616,3.57,3.569,3.5709,3.5805,3.588,3.5891,3.5894,3.586,3.59,3.5917,3.5896,3.6038,3.5997,3.6014,3.6066,3.6208,3.6216,3.6223,3.6273,3.6288,3.6301,0,0,0,0,0,0,3.566,3.5706,3.5695,3.5796,3.5835,3.5874,3.5924,3.5911,3.5958,3.5951,3.595,3.596,3.6045,3.6064,3.6017,3.6164,3.6117,3.6129,3.6149,3.6164,3.6176,3.6168,3.5972,0,0,0,0,0,3.5682,3.5742,3.5777,3.5863,3.5883,3.59,3.5933,3.5932,3.5971,3.5986,3.6009,3.6045,3.6097,3.6132,3.6182,3.6281,3.6287,3.6324,3.6336,3.6345,3.6355,3.6405,3.6421,3.6252,3.6252,3.6251,0,0,3.5727,3.5759,3.5797,3.5872,3.5902,3.5961,3.5914,3.5979,3.6021,3.5995,3.6075,3.6093,3.6133,3.6224,3.6265,3.6242,3.6403,3.6355,3.6362,3.6367,3.6414,3.643,3.6444,3.6257,3.6256,3.6255,0,0,3.5839,3.5871,3.5944,3.5974,3.602,3.6031,3.6049,3.609,3.6101,3.6182,3.6162,3.6211,3.6303,3.6331,3.6358,3.6478,3.6459,3.6494,3.6554,3.6603,3.6617,3.6628,3.6669,3.6683,3.6503,3.6504,3.6504,0,3.5888,3.5979,3.5983,3.6049,3.6081,3.6062,3.6134,3.6162,3.6221,3.6243,3.6217,3.6329,3.6355,3.645,3.648,3.6503,3.652,3.6489,3.6615,3.6627,3.6638,3.6676,3.6691,3.6507,3.6507,3.6507,3.6506,0,3.6035,3.6098,3.6151,3.621,3.6248,3.6317,3.6329,3.6367,3.6362,3.6374,3.6454,3.6485,3.6539,3.6562,3.6558,3.6656,3.664,3.6615,3.6567,3.6658,3.6693,3.6708,3.6513,3.6511,3.651,3.6509,0,0,3.6177,3.6237,3.6256,3.6281,3.633,3.6377,3.6443,3.6498,3.6529,3.657,3.6623,3.67,3.6676,3.6706,3.6705,3.6748,3.6838,3.6717,3.6718,3.6736,3.6944,3.6962,3.6979,3.6826,3.6829,3.6831,3.694,0,3.629,3.641,3.6414,3.6521,3.6577,3.6559,3.6616,3.665,3.6663,3.671,3.6723,3.6777,3.6743,3.6761,3.6803,3.6818,3.6879,3.681,3.6872,3.6875,3.6861,3.6998,3.7017,3.7118,3.6954,3.6957,3.6958,0,3.6439,3.6485,3.6599,3.6637,3.666,3.6712,3.6762,3.6808,3.6845,3.6851,3.6884,3.6875,3.694,3.6891,3.6978,3.6931,3.6956,3.6967,3.6971,3.6975,3.6921,3.7003,3.7151,3.7165,3.6981,3.6979,3.6978,0,3.6527,3.6618,3.6697,3.672,3.6767,3.6803,3.6824,3.6858,3.689,3.6933,3.6953,3.7001,3.7027,3.7064,3.7067,3.7032,3.7153,3.7106,3.7157,3.7157,3.7183,3.7181,3.7334,3.7203,3.7203,3.7202,3.7202,0,3.6652,3.6721,3.6738,3.6786,3.6862,3.6865,3.6939,3.6957,3.6987,3.7036,3.7023,3.7068,3.7071,3.7117,3.712,3.719,3.7202,3.7206,3.7206,3.7207,3.7206,3.7222,3.7214,3.7206,3.7205,3.7205,3.7204,0,3.6764,3.6778,3.6862,3.69,3.6911,3.6965,3.6996,3.704,3.7052,3.7114,3.7128,3.7145,3.7198,3.7206,3.7268,3.727,3.7353,3.7346,3.7341,3.7339,3.7389,3.7384,3.7557,3.7578,3.7435,3.7436,3.7438,0,3.6842,3.6895,3.6938,3.6971,3.6994,3.7047,3.708,3.7084,3.7118,3.7163,3.7201,3.7254,3.7296,3.7381,3.7397,3.7444,3.7436,3.7494,3.7443,3.7441,3.7434,3.743,3.7434,3.7503,3.7504,3.7506,3.7507,0,3.6977,3.6981,3.703,3.7081,3.7121,3.7161,3.7198,3.7225,3.7234,3.7272,3.7327,3.736,3.7423,3.7474,3.752,3.7538,3.7523,3.7523,3.7537,3.7537,3.7531,3.7533,3.7365,3.7519,3.7517,3.7516,3.7516,3.7515,3.7073,3.7118,3.7155,3.7209,3.7238,3.7273,3.7316,3.7333,3.738,3.7434,3.7433,3.7492,3.7525,3.7585,3.7606,3.7651,3.7632,3.7653,3.7658,3.7662,3.7666,3.7526,3.7659,3.7659,3.7659,3.7659,3.7658,0,3.7205,3.7229,3.7279,3.7332,3.7374,3.7358,3.7398,3.7433,3.7487,3.752,3.7561,3.7623,3.7672,3.7692,3.7739,3.7771,3.7765,3.7782,3.7779,3.7783,3.7682,3.7664,3.7786,3.7786,3.7786,3.7786,3.7786,3.7786,3.7279,3.7355,3.7363,3.7451,3.7472,3.7533,3.7556,3.7587,3.7613,3.7683,3.7725,3.7738,3.7765,3.7813,3.7856,3.786,3.7877,3.7898,3.7899,3.7803,3.779,3.7778,3.7761,3.7902,3.7902,3.7996,3.7997,3.7997]}]]